Time,TemperatureF,DewpointF,PressureIn,WindDirection,WindDirectionDegrees,WindSpeedMPH,WindSpeedGustMPH,Humidity,HourlyPrecipIn,Conditions,Clouds,dailyrainin,SolarRadiationWatts/m^2,SoftwareType,DateUTC
2013-11-23 00:00:00,27.0,13.0,-100.00,NW,315,9.0,-999.0,55,-99.99,,,-99.99,0.000000,,2013-11-23 06:00:00,
2013-11-23 00:42:00,27.0,13.0,-100.00,NW,315,9.0,-999.0,55,-99.99,,,-99.99,0.000000,,2013-11-23 06:42:00,
2013-11-23 00:53:00,27.0,13.0,-100.00,NW,315,9.0,-999.0,55,-99.99,,,-99.99,0.000000,,2013-11-23 06:53:00,
2013-11-23 03:00:00,22.0,8.0,-100.00,NNW,337,11.0,-999.0,55,-99.99,,,-99.99,0.000000,,2013-11-23 09:00:00,
2013-11-23 03:43:00,22.0,8.0,-100.00,NNW,337,11.0,-999.0,55,-99.99,,,-99.99,0.000000,,2013-11-23 09:43:00,
2013-11-23 03:54:00,22.0,8.0,-100.00,NNW,337,11.0,-999.0,55,-99.99,,,-99.99,0.000000,,2013-11-23 09:54:00,
2013-11-23 06:00:00,18.0,9.0,-100.00,NNW,337,12.0,-999.0,67,-99.99,,,-99.99,0.000000,,2013-11-23 12:00:00,
2013-11-23 06:42:00,18.0,9.0,-100.00,NNW,337,12.0,-999.0,67,-99.99,,,-99.99,0.000000,,2013-11-23 12:42:00,
2013-11-23 06:52:00,18.0,9.0,-100.00,NNW,337,12.0,-999.0,67,-99.99,,,-99.99,0.000000,,2013-11-23 12:52:00,
2013-11-23 09:00:00,15.0,4.0,-100.00,NNW,337,12.0,-999.0,58,-99.99,,,-99.99,180.960007,,2013-11-23 15:00:00,
2013-11-23 09:43:00,15.0,4.0,-100.00,NNW,337,12.0,-999.0,58,-99.99,,,-99.99,180.960007,,2013-11-23 15:43:00,
2013-11-23 09:54:00,15.0,4.0,-100.00,NNW,337,12.0,-999.0,58,-99.99,,,-99.99,180.960007,,2013-11-23 15:54:00,
2013-11-23 12:00:00,18.0,1.0,-100.00,NW,315,11.0,-999.0,47,-99.99,,,-99.99,415.279999,,2013-11-23 18:00:00,
2013-11-23 12:42:00,18.0,1.0,-100.00,NW,315,11.0,-999.0,47,-99.99,,,-99.99,415.279999,,2013-11-23 18:42:00,
2013-11-23 12:52:00,18.0,1.0,-100.00,NW,315,11.0,-999.0,47,-99.99,,,-99.99,415.279999,,2013-11-23 18:52:00,
2013-11-23 15:00:00,17.0,-2.0,-100.00,NW,315,11.0,-999.0,42,-99.99,,,-99.99,107.879997,,2013-11-23 21:00:00,
2013-11-23 15:43:00,17.0,-2.0,-100.00,NW,315,11.0,-999.0,42,-99.99,,,-99.99,107.879997,,2013-11-23 21:43:00,
2013-11-23 15:53:00,17.0,-2.0,-100.00,NW,315,11.0,-999.0,42,-99.99,,,-99.99,107.879997,,2013-11-23 21:53:00,
2013-11-23 18:00:00,15.0,-1.0,-100.00,NW,315,11.0,-999.0,49,-99.99,,,-99.99,0.000000,,2013-11-24 00:00:00,
2013-11-23 18:42:00,15.0,-1.0,-100.00,NW,315,11.0,-999.0,49,-99.99,,,-99.99,0.000000,,2013-11-24 00:42:00,
2013-11-23 18:52:00,15.0,-1.0,-100.00,NW,315,11.0,-999.0,49,-99.99,,,-99.99,0.000000,,2013-11-24 00:52:00,
2013-11-23 21:00:00,-999.0,-99.9,-100.00,NW,315,8.0,-999.0,-999,-99.99,,,-99.99,,,2013-11-24 03:00:00,
2013-11-23 21:43:00,14.0,2.0,-100.00,NW,315,8.0,-999.0,59,-99.99,,,-99.99,0.000000,,2013-11-24 03:43:00,
2013-11-23 21:54:00,14.0,2.0,-100.00,NW,315,8.0,-999.0,59,-99.99,,,-99.99,0.000000,,2013-11-24 03:54:00,